This is the latest recevied weather packets stored in our database for station/object JE0GNV-13. If no packets are shown the sender has not sent any weather packets the latest 10 day(s).
| Time | Temp. | Humidity | Pressure | Rain* | Wind** | Luminosity | Snow |
|---|---|---|---|---|---|---|---|
| 1777942200 | 13.89° C | 33% | 1017.3 hPa | 0 mm | - | - | - |
| 1777941601 | 13.33° C | 34% | 1017.3 hPa | 0 mm | - | - | - |
| 1777941000 | 12.78° C | 37% | 1017.2 hPa | 0 mm | - | - | - |
| 1777940401 | 12.22° C | 37% | 1017.3 hPa | 0 mm | - | - | - |
| 1777939801 | 11.67° C | 41% | 1017.3 hPa | 0 mm | - | - | - |
| 1777939200 | 11.67° C | 40% | 1017.1 hPa | 0 mm | - | - | - |
| 1777938600 | 11.11° C | 43% | 1017.1 hPa | 0 mm | - | - | - |
| 1777938000 | 10.56° C | 43% | 1017.1 hPa | 0 mm | - | - | - |
| 1777937400 | 10° C | 45% | 1017.1 hPa | 0 mm | - | - | - |
| 1777936801 | 10° C | 46% | 1017 hPa | 0 mm | - | - | - |
| 1777936200 | 9.44° C | 45% | 1017 hPa | 0 mm | - | - | - |
| 1777935601 | 8.89° C | 42% | 1017 hPa | 0 mm | - | - | - |
| 1777935001 | 8.33° C | 58% | 1016.8 hPa | 0 mm | - | - | - |
| 1777934401 | 7.22° C | 67% | 1016.8 hPa | 0 mm | - | - | - |
| 1777933800 | 6.67° C | 71% | 1016.7 hPa | 0 mm | - | - | - |
| 1777933202 | 6.11° C | 76% | 1016.5 hPa | 0 mm | - | - | - |
| 1777932601 | 5.56° C | 79% | 1016.5 hPa | 0 mm | - | - | - |
| 1777932000 | 5.56° C | 79% | 1016.5 hPa | 0 mm | - | - | - |
| 1777931401 | 5° C | 81% | 1016.4 hPa | 0 mm | - | - | - |
| 1777930802 | 5° C | 82% | 1016.4 hPa | 0 mm | - | - | - |
| 1777930201 | 4.44° C | 83% | 1016.2 hPa | 0 mm | - | - | - |
| 1777929601 | 4.44° C | 83% | 1016.1 hPa | 0 mm | - | - | - |
| 1777929001 | 3.89° C | 84% | 1016.1 hPa | 0 mm | - | - | - |
| 1777928401 | 3.89° C | 85% | 1015.7 hPa | 0 mm | - | - | - |
| 1777927801 | 3.33° C | 86% | 1015.5 hPa | 0 mm | - | - | - |
* Rain latest hour (hover to see other rain measurements)
** Current wind speed in m/s (hover to see current wind gust speed)